Regional Weather Roundup
Issued by NWS

Home | Current Version | Previous Version | Text Only | Print | Product List | Glossary Off
Versions: 1 2 3 4 5 6 7 8 9 10 11 12 13 14 15 16 17 18 19 20 21 22 23 24 25 26 27 28 29 30 31 32 33 34 35 36 37 38 39 40 41 42 43 44 45 46 47 48 49 50

000
ASUS43 KMPX 280601
RWRMN
WEATHER ROUNDUP FOR MINNESOTA
NATIONAL WEATHER SERVICE TWIN CITIES/CHANHASSEN MN
100 AM CDT TUE JUL 28 2015


NOTE: "FAIR" INDICATES FEW OR NO CLOUDS BELOW 12,000 FEET WITH NO
SIGNIFICANT WEATHER AND/OR OBSTRUCTIONS TO VISIBILITY. N/A MEANS
CURRENT SKY AND/OR WEATHER CONDITIONS ARE NOT AVAILABLE.

MNZ060>063-068>070-280700-
   Twin Cities Metro

CITY           SKY/WX    TMP DP  RH WIND       PRES   REMARKS
TWIN CITIES    PTCLDY    76  71  85 SE10      29.89F
6HR MIN TEMP:  76; 6HR MAX TEMP:  84;

ST PAUL        CLEAR     76  71  85 SE12      29.90F
CRYSTAL        CLEAR     78  71  79 SE10      29.87F
BLAINE         CLEAR     79  73  83 SE9       29.89F
LAKEVILLE      CLEAR     72  70  94 SE5       29.90F
EDEN PRAIRIE   CLEAR     76  71  85 SE10      29.87F
6HR MIN TEMP:  76; 6HR MAX TEMP:  84;

SOUTH ST PAUL  CLEAR     75  70  84 SE7       29.90F
LAKE ELMO      FAIR      73  70  88 SE7       29.92F
$$
MNZ001>005-007-008-013>017-022>024-027-028-280700-
   Northwest Minnesota

CITY           SKY/WX    TMP DP  RH WIND       PRES   REMARKS
BEMIDJI        PTCLDY    74  70  87 SE14      29.83F
HALLOCK        PTCLDY    75  72  88 SE12      29.72F
ROSEAU         PTCLDY    73  68  83 SE8       29.79F
WARROAD        PTCLDY    73  70  88 SE7       29.81F
THIEF RVR FALL PTCLDY    73  70  88 SE9       29.77F
CROOKSTON      PTCLDY    73  72  94 SE9       29.75F
FOSSTON        CLEAR     73  68  83 SE10      29.79F
DETROIT LAKES  CLOUDY    75  72  88 SE12G21   29.80F
MOORHEAD       CLEAR     75  72  88 SE10G16   29.73F
PARK RAPIDS    CLEAR     75  70  84 SE14      29.83F
MAHNOMEN       FAIR      75  71  86 SE15      29.78F
$$
MNZ006-009>011-018-025>026-280700-
   North Central Minnesota

CITY           SKY/WX    TMP DP  RH WIND       PRES   REMARKS
BAUDETTE       PTCLDY    74  66  76 SE8       29.83F
FLAG ISLAND    CLEAR     79  70  73 SE14      29.80F
INTL FALLS     CLEAR     73  66  78 SE6       29.87F
6HR MIN TEMP:  72; 6HR MAX TEMP:  85;

WASKISH        PTCLDY    72  68  88 E7        29.83F
BIG FORK       CLEAR     73  66  78 SE5       29.89F
LONGVILLE      CLEAR     73  70  88 SE5       29.87F
GRAND RAPIDS   CLEAR     72  66  83 SE8       29.90F
CRANE LAKE     CLEAR     63  61  94 S2        29.93F
ORR            CLEAR     70  61  73 SE5       29.89F
COOK           CLEAR     72  63  73 SE6       29.93F
WALKER         FAIR      74  70  85 SE10G17   29.85F
$$
MNZ012-019>021-037-280700-
   Northeast Minnesota

CITY           SKY/WX    TMP DP  RH WIND       PRES   REMARKS
DULUTH         MOCLDY    74  64  71 SE7       29.95F
6HR MIN TEMP:  69; 6HR MAX TEMP:  81;

ELY            CLEAR     68  61  77 S5        29.96S
HIBBING        CLEAR     66  63  90 SE7       29.92F
EVELETH        CLEAR     64  61  88 CALM      29.95F
DULUTH HARBOR  MOCLDY    72  68  88 CALM      29.93F
TWO HARBORS    PTCLDY    66  63  88 CALM      29.94S
SILVER BAY     CLEAR     64  61  88 CALM      29.94F
GRAND MARAIS     N/A     61  58  90 NW3       29.96S
G MARAIS ARPRT CLEAR     64  57  77 CALM      30.02S
$$
MNZ029>031-032-039>041-046>048-054>057-064-280700-
   West Central Minnesota

CITY           SKY/WX    TMP DP  RH WIND       PRES   REMARKS
FERGUS FALLS   CLEAR     75  70  83 SE18      29.75F
WHEATON        CLEAR     72  70  94 SE13      29.75F
MORRIS         CLEAR     73  70  88 SE15      29.77F
ALEXANDRIA     MOCLDY    74  71  91 SE14      29.83F
ELBOW LAKE     FAIR      74  70  87 SE14      29.77F
WADENA         MOCLDY    73  70  88 SE10      29.82F
GLENWOOD       CLEAR     73  70  88 SE12      29.83F
APPLETON       PTCLDY    77  68  73 SE14G21   29.77F
BENSON         PTCLDY    73  66  78 S12G17    29.79F
ORTONVILLE     PTCLDY    73  70  88 SE13      29.74F
MADISON        PTCLDY    73  70  88 SE12G18   29.77F
WILLMAR        FAIR      73  72  94 SE10      29.84F
$$
MNZ033>034-036-042>043-049>051-058-059-280700-
   Central Minnesota

CITY           SKY/WX    TMP DP  RH WIND       PRES   REMARKS
ST CLOUD       CLEAR     74  72  93 SE7       29.86F
6HR MIN TEMP:  74; 6HR MAX TEMP:  84;

SAUK CENTRE    FAIR      73  70  91 SE8       29.84F
PAYNESVILLE    CLEAR     72  68  87 E14G20    29.85F
AITKIN         CLEAR     73  68  83 SE9       29.88F
PINE RIVER     CLEAR     73  70  88 SE12      29.89F
BRAINERD       PTCLDY    74  70  87 SE7       29.87F
STAPLES        PTCLDY    73  70  88 SE7       29.84F
LONG PRAIRIE   MOCLDY    72  70  94 SE10      29.85F
LITTLE FALLS   CLEAR     72  68  88 SE8       29.86F
LITCHFIELD     CLEAR     75  72  88 SE8       29.86F
BUFFALO        CLEAR     76  70  82 SE8       29.89F
MAPLE LAKE     CLEAR     75  73  94 SE6       29.88F
$$
MNZ037-044-045-052-053-280700-
   East Central Minnesota

CITY           SKY/WX    TMP DP  RH WIND       PRES   REMARKS
PRINCETON      CLEAR     75  72  88 SE6       29.88F
MORA           CLEAR     70  66  88 E3        29.92F
CAMBRIDGE      CLEAR     77  66  69 SE5       29.88F
RUSH CITY      CLEAR     72  68  87 SE5       29.92S
MOOSE LAKE     CLEAR     72  66  83 CALM      29.91S
HINCKLEY       FAIR      70  68  94 E3        29.93S
CLOQUET        CLOUDY    70  64  83 CALM      29.94F
MCGREGOR       CLEAR     72  68  88 SE6       29.91F
$$
MNZ071>073-080-081-089-090-097-098-280700-
   Southwest Minnesota

CITY           SKY/WX    TMP DP  RH WIND       PRES   REMARKS
MONTEVIDEO     MOCLDY    73  68  83 S12G20    29.81F
GRANITE FALLS  MOCLDY    73  67  81 SE13      29.81F
CANBY          MOCLDY    73  70  91 SE10      29.78F
MARSHALL       CLOUDY    73  66  78 S16       29.80F
REDWOOD FALLS  PTCLDY    73  67  81 SE14      29.83F
OLIVIA         PTCLDY    70  64  83 SE12      29.83F
PIPESTONE      MOCLDY    73  66  78 S15G22    29.80F
WINDOM         PTCLDY    72  66  83 SE12      29.86F
WORTHINGTON    CLOUDY    72  64  78 SE12G21   29.84F
JACKSON        MOCLDY    70  68  94 SE12      29.88F
TRACY          MOCLDY    73  70  88 S10       29.83F
SLAYTON        CLOUDY    72  68  88 SE14G20   29.83F
$$
MNZ065>067-074>077-082>085-091>093-280700-
   South Central Minnesota

CITY           SKY/WX    TMP DP  RH WIND       PRES   REMARKS
MANKATO        CLEAR     73  70  88 SE14G20   29.88F
NEW ULM        CLEAR     72  66  83 SE9       29.86F
ST JAMES       CLEAR     72  66  83 SE10      29.88F
FAIRMONT       CLEAR     72  63  73 SE12      29.88F
GLENCOE        CLEAR     75  73  93 SE8       29.87F
OWATONNA       CLEAR     75  72  88 SE9       29.91F
WASECA         CLEAR     72  70  94 SE7       29.92F
ALBERT LEA     PTCLDY    73  72  94 S8        29.92F
$$
MNZ078>079-086>088-094>096-280700-
   Southeast Minnesota

CITY           SKY/WX    TMP DP  RH WIND       PRES   REMARKS
ROCHESTER      CLEAR     71  69  93 SE8       29.96F FOG
6HR MIN TEMP:  71; 6HR MAX TEMP:  80;

RED WING       CLEAR     75  70  83 SE6       29.92S
STANTON        CLEAR     75  70  84 S9        29.90F
DODGE CENTER   CLEAR     72  70  94 SE7       29.95S FOG
WINONA         CLEAR     73  70  88 SE5       29.95F
AUSTIN         CLEAR     73  72  94 SE5       29.94S
PRESTON        CLEAR     71  68  90 SE5       29.98F
$$
ABBREVIATIONS USED IN REMARKS
   TC - TEMPERATURES IN CELSIUS
  WCI - WIND CHILL INDEX
   HX - HEAT INDEX
  VSB - VISIBILITY
$$



USA.gov is the U.S. government's official web portal to all federal, state and local government web resources and services.